Portada
METAR-TAF:

METAR-TAF

Aeroports :

Salalah, Oman

latitud: 17-02N, longitud: 054-05E, altitud: 20 m

Observació

L'informe es va fer fa 59 minuts, a les 06:50 UTC
Vent 7 kt del Sud/Sud-Est
Temperatura 29°C
Humitat 62%
Pressió 1015 hPa
Visibilitat 10 km o més
Núvols disperses a una alçada de 2500 ft

METAR: OOSA 190650Z 16007KT 9999 SCT025 29/21 Q1015 NOSIG

Hora: 11:49 (07:49 UTC)

Pronòstic

L'informe es va fer fa 2 hores i 49 minuts, a les 05:00 UTC
Pronòstic vàlid del 19 a les 06 UTC al 20 a les 12 UTC
Vent 8 kt del Sud/Sud-Est
Visibilitat 10 km o més
Escasses núvols a una alçada de 2500 ft
Evolucionant progressivament
l' 19 a les 18 UTC al 19 a les 20 UTC
Vent 3 kt amb direcció variable
Cel ennuvolat a una alçada de 2500 ft
Evolucionant progressivament
l' 20 a les 06 UTC al 20 a les 08 UTC
Vent 7 kt del Sud
Escasses núvols a una alçada de 2500 ft

TAF: OOSA 190500Z 1906/2012 16008KT 9999 FEW025 BECMG 1918/1920 VRB03KT BKN025 BECMG 2006/2008 17007KT FEW025

Observacions i pronòstics meteorològics de més de 4000 aeroports (METAR i TAF).

Les estacions disponibles són els punts grocs i vermells al mapa.

Posi el ratolí al punt desitjat per veure el nom de l'estació.

Feu clic per veure les observacions i els pronòstics meteorològics.

Per canviar el mapa: feu clic els botons verds amb una creu de color negre per apropar; al botó verd amb un guió per allunyar la imatge; o en les fletxes verdes per a mapes adjacents.


METAR-TAF: